Washington, NC

1:00 AM EDT on August 26, 2016 (GMT -0400)
Warren

Weather History for KOCW - April, 2013

Change the Weather History Date:

Monday, April 22, 2013

  Actual Average (KEWN) Record (KEWN)
Temperature  
Mean Temperature 50 °F 64 °F  
Max Temperature 60 °F 75 °F 92 °F (1985)
Min Temperature 40 °F 52 °F 36 °F (1950)
Degree Days  
Heating Degree Days 15 4  
Month to date heating degree days 127  
Since 1 July heating degree days 2642  
Cooling Degree Days 0 2  
Month to date cooling degree days 34  
Year to date cooling degree days 48  
Moisture  
Dew Point 43 °F    
Average Humidity 78    
Maximum Humidity 81    
Minimum Humidity 63    
Precipitation  
Precipitation 0.07 in 0.11 in 1.79 in (1972)
Month to date precipitation 2.30  
Year to date precipitation 14.37  
Snow  
Snow 0.00 in - - ()
Month to date snowfall  
Since 1 July snowfall  
Snow Depth -    
Sea Level Pressure  
Sea Level Pressure 30.33 in    
Wind  
Wind Speed 10 mph (North)    
Max Wind Speed 20 mph    
Max Gust Speed 28 mph    
Visibility 8 miles    
Events Rain    
T = Trace of Precipitation, MM = Missing Value Source: NWS Daily Summary

Daily Weather History Graph

Daily Weather History Graph

Search for Another Location

Airport or City:

Trip Planner

Search our weather history database for the weather conditions in past years. The results will help you decide how hot, cold, wet, or windy it might be!

Date:

Astronomy

Apr. 22, 2013 Rise Set
Actual Time 6:26 AM EDT 7:47 PM EDT
Civil Twilight 5:59 AM EDT 8:14 PM EDT
Nautical Twilight 5:27 AM EDT 8:46 PM EDT
Astronomical Twilight 4:54 AM EDT 9:19 PM EDT
Moon 4:40 PM EDT (4/22) 4:12 AM EDT (4/22)
Length of Visible Light 14h 14m
Length of Day
13h 20m
Waxing Gibbous, 87% of the Moon is Illuminated
Apr 22
Waxing Gibbous
Apr 25
Full
May 2
Last Quarter
May 9
New
May 18
First Quarter

Hourly Weather History & Observations

Time (EDT) Temp. Windchill Dew Point Humidity Pressure Visibility Wind Dir Wind Speed Gust Speed Precip Events Conditions
12:15 AM 42.8 °F 38.6 °F 36.5 °F 78% 30.47 in 10.0 mi North 6.9 mph - N/A   Clear
12:35 AM 42.8 °F 39.3 °F 36.7 °F 79% 30.48 in 10.0 mi North 5.8 mph - N/A   Clear
12:55 AM 42.8 °F 38.6 °F 37.0 °F 80% 30.47 in 10.0 mi North 6.9 mph - N/A   Clear
1:15 AM 42.8 °F 37.5 °F 37.4 °F 81% 30.45 in 10.0 mi North 9.2 mph - N/A   Clear
1:55 AM 42.8 °F 38.0 °F 37.4 °F 81% 30.44 in 10.0 mi North 8.1 mph - N/A   Clear
2:15 AM 42.8 °F 38.6 °F 37.4 °F 81% 30.45 in 10.0 mi North 6.9 mph - N/A   Clear
2:35 AM 42.8 °F 38.6 °F 37.4 °F 81% 30.44 in 10.0 mi North 6.9 mph - N/A   Clear
2:55 AM 42.8 °F 38.6 °F 37.4 °F 81% 30.43 in 10.0 mi North 6.9 mph - N/A   Clear
3:15 AM 42.8 °F 38.0 °F 37.4 °F 81% 30.41 in 10.0 mi North 8.1 mph - N/A   Clear
3:35 AM 42.8 °F 38.6 °F 37.0 °F 80% 30.41 in 10.0 mi North 6.9 mph - N/A   Clear
3:55 AM 40.6 °F 35.4 °F 35.2 °F 81% 30.41 in 10.0 mi North 8.1 mph - N/A   Mostly Cloudy
4:15 AM 40.1 °F 35.3 °F 34.7 °F 81% 30.40 in 10.0 mi North 6.9 mph - N/A   Scattered Clouds
4:35 AM 40.1 °F 35.3 °F 34.7 °F 81% 30.41 in 10.0 mi North 6.9 mph - N/A   Clear
4:55 AM 40.1 °F 34.7 °F 34.7 °F 81% 30.40 in 10.0 mi North 8.1 mph - N/A   Clear
5:15 AM 40.1 °F 34.1 °F 34.7 °F 81% 30.39 in 10.0 mi North 9.2 mph - N/A   Clear
5:35 AM 40.1 °F 34.7 °F 34.7 °F 81% 30.39 in 10.0 mi North 8.1 mph - N/A   Clear
5:55 AM 40.1 °F 34.7 °F 34.7 °F 81% 30.39 in 10.0 mi North 8.1 mph - N/A   Clear
6:15 AM 40.1 °F 34.1 °F 34.7 °F 81% 30.38 in 10.0 mi North 9.2 mph - N/A   Clear
6:35 AM 40.1 °F 35.3 °F 34.7 °F 81% 30.38 in 10.0 mi North 6.9 mph - N/A   Scattered Clouds
6:55 AM 40.6 °F 36.7 °F 35.2 °F 81% 30.39 in 10.0 mi North 5.8 mph - N/A   Overcast
7:15 AM 42.8 °F 37.0 °F 37.4 °F 81% 30.38 in 10.0 mi North 10.4 mph - N/A   Overcast
7:35 AM 42.8 °F 38.0 °F 37.4 °F 81% 30.38 in 10.0 mi North 8.1 mph - N/A   Mostly Cloudy
7:55 AM 44.1 °F 38.6 °F 38.5 °F 81% 30.38 in 10.0 mi NNE 10.4 mph - N/A   Overcast
8:15 AM 45.1 °F 40.3 °F 39.6 °F 81% 30.38 in 10.0 mi NNE 9.2 mph 20.7 mph N/A   Mostly Cloudy
8:35 AM 47.7 °F - 41.5 °F 79% 30.37 in 10.0 mi NNE 12.7 mph - N/A   Mostly Cloudy
8:55 AM 48.0 °F - 41.9 °F 79% 30.36 in 10.0 mi NE 11.5 mph 18.4 mph N/A   Mostly Cloudy
9:15 AM 52.2 °F - 45.3 °F 78% 30.36 in 10.0 mi NNE 9.2 mph 17.3 mph N/A   Mostly Cloudy
9:35 AM 52.7 °F - 45.5 °F 76% 30.35 in 10.0 mi NNE 12.7 mph 23.0 mph N/A   Scattered Clouds
9:55 AM 52.7 °F - 44.6 °F 74% 30.35 in 10.0 mi NNE 11.5 mph 19.6 mph N/A   Scattered Clouds
10:15 AM 54.0 °F - 45.9 °F 74% 30.34 in 10.0 mi North 12.7 mph 20.7 mph N/A   Clear
10:35 AM 58.1 °F - 48.6 °F 71% 30.35 in 10.0 mi NNE 13.8 mph 20.7 mph N/A   Scattered Clouds
10:55 AM 58.1 °F - 48.0 °F 69% 30.35 in 10.0 mi NNE 16.1 mph 20.7 mph N/A   Scattered Clouds
11:15 AM 58.1 °F - 47.8 °F 69% 30.35 in 10.0 mi North 13.8 mph 20.7 mph N/A   Scattered Clouds
11:35 AM 58.6 °F - 48.0 °F 68% 30.34 in 10.0 mi NNE 17.3 mph 20.7 mph N/A   Scattered Clouds
11:55 AM 59.0 °F - 47.5 °F 66% 30.34 in 10.0 mi North 16.1 mph - N/A   Scattered Clouds
12:15 PM 58.3 °F - 46.6 °F 65% 30.34 in 10.0 mi NNE 13.8 mph 21.9 mph N/A   Mostly Cloudy
12:35 PM 58.1 °F - 46.6 °F 65% 30.34 in 10.0 mi NNE 10.4 mph 23.0 mph N/A   Mostly Cloudy
12:55 PM 58.1 °F - 46.2 °F 65% 30.32 in 10.0 mi North 17.3 mph 21.9 mph N/A   Mostly Cloudy
1:15 PM 60.4 °F - 47.7 °F 63% 30.31 in 10.0 mi North 18.4 mph - N/A   Scattered Clouds
1:35 PM 58.8 °F - 46.9 °F 65% 30.31 in 10.0 mi NE 13.8 mph 25.3 mph N/A   Mostly Cloudy
1:55 PM 58.3 °F - 46.8 °F 66% 30.30 in 10.0 mi North 18.4 mph 25.3 mph N/A   Overcast
2:15 PM 58.1 °F - 46.6 °F 65% 30.30 in 10.0 mi North 18.4 mph 23.0 mph N/A   Overcast
2:35 PM 58.1 °F - 47.7 °F 68% 30.29 in 10.0 mi North 17.3 mph 23.0 mph N/A   Overcast
2:55 PM 58.1 °F - 49.1 °F 72% 30.28 in 10.0 mi North 18.4 mph 27.6 mph N/A   Overcast
3:15 PM 56.3 °F - 49.6 °F 78% 30.27 in 7.0 mi NNE 18.4 mph 25.3 mph N/A Rain Light Rain
3:35 PM 55.6 °F - 48.9 °F 78% 30.26 in 10.0 mi NNE 12.7 mph 19.6 mph N/A   Overcast
3:55 PM 55.4 °F - 49.1 °F 79% 30.26 in 7.0 mi North 15.0 mph 25.3 mph N/A Rain Light Rain
4:15 PM 53.1 °F - 47.3 °F 81% 30.26 in 5.0 mi North 11.5 mph 20.7 mph 0.01 in Rain Light Rain
4:35 PM 52.7 °F - 46.9 °F 81% 30.26 in 7.0 mi North 13.8 mph 19.6 mph 0.01 in   Overcast
4:55 PM 52.7 °F - 46.9 °F 81% 30.25 in 3.0 mi North 12.7 mph 17.3 mph 0.02 in Rain Rain
5:15 PM 52.7 °F - 46.9 °F 81% 30.25 in 5.0 mi North 13.8 mph 21.9 mph N/A Rain Light Rain
5:35 PM 52.7 °F - 46.9 °F 81% 30.25 in 4.0 mi North 12.7 mph - N/A Rain Light Rain
5:55 PM 52.7 °F - 46.9 °F 81% 30.24 in 5.0 mi North 10.4 mph - N/A   Haze
6:15 PM 52.7 °F - 46.9 °F 81% 30.24 in 5.0 mi North 12.7 mph 20.7 mph N/A   Drizzle
6:35 PM 52.7 °F - 46.9 °F 81% 30.24 in 4.0 mi North 12.7 mph 21.9 mph N/A   Haze
6:55 PM 52.7 °F - 46.9 °F 81% 30.24 in 3.0 mi North 19.6 mph 26.5 mph 0.01 in Rain Light Rain
7:15 PM 52.7 °F - 46.9 °F 81% 30.24 in 4.0 mi North 12.7 mph 21.9 mph 0.01 in Rain Light Rain
7:35 PM 52.7 °F - 46.9 °F 81% 30.23 in 3.0 mi North 13.8 mph 24.2 mph 0.01 in Rain Light Rain
7:55 PM 52.7 °F - 46.9 °F 81% 30.23 in 5.0 mi North 13.8 mph 19.6 mph 0.02 in Rain Rain
8:15 PM 52.7 °F - 46.9 °F 81% 30.24 in 10.0 mi North 11.5 mph 17.3 mph 0.01 in Rain Rain
8:35 PM 52.7 °F - 46.9 °F 81% 30.24 in 5.0 mi North 16.1 mph 23.0 mph 0.01 in Rain Light Rain
8:55 PM 52.7 °F - 46.9 °F 81% 30.24 in 4.0 mi NNE 13.8 mph - 0.01 in Rain Rain
9:15 PM 52.7 °F - 46.9 °F 81% 30.24 in 10.0 mi North 12.7 mph - N/A   Light Drizzle
9:35 PM 52.7 °F - 46.9 °F 81% 30.24 in 7.0 mi NNE 12.7 mph 21.9 mph 0.01 in   Drizzle
9:55 PM 52.7 °F - 46.9 °F 81% 30.24 in 7.0 mi NNE 11.5 mph 20.7 mph 0.01 in Rain Light Rain
10:15 PM 52.7 °F - 46.9 °F 81% 30.24 in 5.0 mi NNE 11.5 mph 18.4 mph N/A   Light Drizzle
10:35 PM 52.7 °F - 46.9 °F 81% 30.24 in 5.0 mi NNE 15.0 mph 21.9 mph N/A   Drizzle
10:55 PM 52.7 °F - 46.9 °F 81% 30.24 in 7.0 mi NNE 12.7 mph 23.0 mph N/A   Light Drizzle
11:15 PM 52.7 °F - 46.9 °F 81% 30.23 in 10.0 mi NNE 11.5 mph 20.7 mph N/A   Overcast
11:35 PM 52.7 °F - 46.9 °F 81% 30.23 in 10.0 mi North 15.0 mph 18.4 mph N/A   Overcast
11:55 PM 52.7 °F - 46.9 °F 81% 30.23 in 7.0 mi NNE 12.7 mph - N/A   Overcast